Multibeam Report for MV1205


Ship Name: Melville
Chief Scientist: Blackman, Donna
Scripps Institution of Oceanography
Source Organization: UNOLS R2R
Start Date: 2012-04-20
End Date: 2012-04-30


View ISO Metadata

Visit the full NCEI Bathymetry Viewer


Multibeam Bathymetry

Cruise Details

Project: INternational Southeast Pacific Investigation of Reducing Environments (INSPIRE): Chile Triple Junction 2012
Instrument: Kongsberg EM122

Data Quality

Number of Files: 332
Number of Records: 321278
BATHYMETRY DATA Quantity Percentage
Number of Beams 138792096 100%
Number of Good Beams 131034453 94.41%
Number of Zero Beams 0 0%
Number of Flagged Beams 7757643 5.59%

Navigation Totals

Total Time: 156.7061 hours
Total Track Length: 2669.548 km
Average Speed: 17.035 km/hr (9.1982 knots)

Cruise Bounds

Northern Extent: -32.969284
Southern Extent: -53.9138
Western Extent: -75.83525
Eastern Extent: -70.82884

Limits

Minimum Sonar Depth 2.342 Maximum Sonar Depth 7.8053
Minimum Altitude 26.9725 Maximum Altitude 4212.9014
Minimum Depth 17.7796 Maximum Depth 4880.6709

File Information

Full Resolution Bathymetry as collected (raw): 329

Files File Size Description
0000_20120420_195102_melville.all.mb58.gz 67.53MB Kongsberg multibeam vendor format
0001_20120420_202102_melville.all.mb58.gz 59.84MB Kongsberg multibeam vendor format
0002_20120420_205102_melville.all.mb58.gz 50.55MB Kongsberg multibeam vendor format
0003_20120420_212102_melville.all.mb58.gz 47.51MB Kongsberg multibeam vendor format
0004_20120420_215104_melville.all.mb58.gz 48.08MB Kongsberg multibeam vendor format
0005_20120420_222103_melville.all.mb58.gz 39.43MB Kongsberg multibeam vendor format
0006_20120420_225104_melville.all.mb58.gz 40.62MB Kongsberg multibeam vendor format
0007_20120420_232103_melville.all.mb58.gz 39.07MB Kongsberg multibeam vendor format
0008_20120420_235102_melville.all.mb58.gz 47.71MB Kongsberg multibeam vendor format
0009_20120421_002103_melville.all.mb58.gz 51.74MB Kongsberg multibeam vendor format
0010_20120421_005103_melville.all.mb58.gz 47.39MB Kongsberg multibeam vendor format
0011_20120421_012101_melville.all.mb58.gz 55.05MB Kongsberg multibeam vendor format
0012_20120421_015102_melville.all.mb58.gz 55.04MB Kongsberg multibeam vendor format
0013_20120421_022102_melville.all.mb58.gz 64.08MB Kongsberg multibeam vendor format
0014_20120421_025102_melville.all.mb58.gz 47.30MB Kongsberg multibeam vendor format
0015_20120421_032101_melville.all.mb58.gz 54.67MB Kongsberg multibeam vendor format
0016_20120421_035101_melville.all.mb58.gz 77.18MB Kongsberg multibeam vendor format
0017_20120421_042101_melville.all.mb58.gz 67.07MB Kongsberg multibeam vendor format
0018_20120421_045102_melville.all.mb58.gz 46.98MB Kongsberg multibeam vendor format
0019_20120421_052103_melville.all.mb58.gz 37.73MB Kongsberg multibeam vendor format
0020_20120421_055101_melville.all.mb58.gz 34.86MB Kongsberg multibeam vendor format
0021_20120421_062102_melville.all.mb58.gz 33.21MB Kongsberg multibeam vendor format
0022_20120421_065102_melville.all.mb58.gz 33.68MB Kongsberg multibeam vendor format
0023_20120421_072103_melville.all.mb58.gz 30.46MB Kongsberg multibeam vendor format
0024_20120421_075102_melville.all.mb58.gz 32.16MB Kongsberg multibeam vendor format
0025_20120421_082101_melville.all.mb58.gz 30.19MB Kongsberg multibeam vendor format
0026_20120421_085105_melville.all.mb58.gz 36.84MB Kongsberg multibeam vendor format
0027_20120421_092101_melville.all.mb58.gz 38.70MB Kongsberg multibeam vendor format
0028_20120421_095103_melville.all.mb58.gz 51.76MB Kongsberg multibeam vendor format
0029_20120421_102102_melville.all.mb58.gz 41.72MB Kongsberg multibeam vendor format
0030_20120421_105101_melville.all.mb58.gz 56.98MB Kongsberg multibeam vendor format
0031_20120421_112102_melville.all.mb58.gz 47.66MB Kongsberg multibeam vendor format
0032_20120421_115102_melville.all.mb58.gz 15.22MB Kongsberg multibeam vendor format
0033_20120421_120330_melville.all.mb58.gz 67.66MB Kongsberg multibeam vendor format
0034_20120421_123329_melville.all.mb58.gz 68.23MB Kongsberg multibeam vendor format
0035_20120421_130330_melville.all.mb58.gz 99.18MB Kongsberg multibeam vendor format
0036_20120421_133329_melville.all.mb58.gz 85.75MB Kongsberg multibeam vendor format
0037_20120421_140330_melville.all.mb58.gz 53.38MB Kongsberg multibeam vendor format
0038_20120421_143329_melville.all.mb58.gz 51.72MB Kongsberg multibeam vendor format
0039_20120421_150329_melville.all.mb58.gz 50.76MB Kongsberg multibeam vendor format
0040_20120421_153330_melville.all.mb58.gz 56.41MB Kongsberg multibeam vendor format
0041_20120421_160330_melville.all.mb58.gz 36.00MB Kongsberg multibeam vendor format
0042_20120421_163329_melville.all.mb58.gz 38.58MB Kongsberg multibeam vendor format
0043_20120421_170330_melville.all.mb58.gz 38.70MB Kongsberg multibeam vendor format
0044_20120421_173331_melville.all.mb58.gz 34.41MB Kongsberg multibeam vendor format
0045_20120421_180332_melville.all.mb58.gz 34.32MB Kongsberg multibeam vendor format
0046_20120421_183333_melville.all.mb58.gz 42.73MB Kongsberg multibeam vendor format
0047_20120421_190330_melville.all.mb58.gz 48.68MB Kongsberg multibeam vendor format
0048_20120421_193332_melville.all.mb58.gz 37.96MB Kongsberg multibeam vendor format
0049_20120421_200329_melville.all.mb58.gz 52.08MB Kongsberg multibeam vendor format
0050_20120421_203330_melville.all.mb58.gz 60.80MB Kongsberg multibeam vendor format
0051_20120421_210329_melville.all.mb58.gz 58.80MB Kongsberg multibeam vendor format
0052_20120421_213329_melville.all.mb58.gz 53.58MB Kongsberg multibeam vendor format
0053_20120421_220330_melville.all.mb58.gz 54.78MB Kongsberg multibeam vendor format
0054_20120421_223330_melville.all.mb58.gz 49.21MB Kongsberg multibeam vendor format
0055_20120421_230330_melville.all.mb58.gz 37.77MB Kongsberg multibeam vendor format
0056_20120421_233331_melville.all.mb58.gz 44.50MB Kongsberg multibeam vendor format
0057_20120422_000331_melville.all.mb58.gz 44.32MB Kongsberg multibeam vendor format
0058_20120422_003331_melville.all.mb58.gz 41.03MB Kongsberg multibeam vendor format
0059_20120422_010329_melville.all.mb58.gz 43.96MB Kongsberg multibeam vendor format
0060_20120422_013330_melville.all.mb58.gz 46.29MB Kongsberg multibeam vendor format
0061_20120422_020331_melville.all.mb58.gz 44.97MB Kongsberg multibeam vendor format
0062_20120422_023331_melville.all.mb58.gz 37.22MB Kongsberg multibeam vendor format
0063_20120422_030332_melville.all.mb58.gz 37.46MB Kongsberg multibeam vendor format
0064_20120422_033330_melville.all.mb58.gz 47.53MB Kongsberg multibeam vendor format
0065_20120422_040330_melville.all.mb58.gz 55.50MB Kongsberg multibeam vendor format
0066_20120422_043330_melville.all.mb58.gz 58.54MB Kongsberg multibeam vendor format
0067_20120422_050330_melville.all.mb58.gz 75.61MB Kongsberg multibeam vendor format
0068_20120422_053329_melville.all.mb58.gz 71.12MB Kongsberg multibeam vendor format
0069_20120422_060329_melville.all.mb58.gz 62.53MB Kongsberg multibeam vendor format
0070_20120422_062425_melville.all.mb58.gz 9.35MB Kongsberg multibeam vendor format
0071_20120422_064707_melville.all.mb58.gz 4.49MB Kongsberg multibeam vendor format
0072_20120422_065752_melville.all.mb58.gz 4.39MB Kongsberg multibeam vendor format
0073_20120422_070823_melville.all.mb58.gz 3.35MB Kongsberg multibeam vendor format
0074_20120422_071716_melville.all.mb58.gz 4.66MB Kongsberg multibeam vendor format
0075_20120422_072841_melville.all.mb58.gz 3.83MB Kongsberg multibeam vendor format
0076_20120422_073923_melville.all.mb58.gz 0.97MB Kongsberg multibeam vendor format
0077_20120422_074440_melville.all.mb58.gz 383.4KB Kongsberg multibeam vendor format
0078_20120422_080708_melville.all.mb58.gz 22.54MB Kongsberg multibeam vendor format
0079_20120422_081459_melville.all.mb58.gz 36.96MB Kongsberg multibeam vendor format
0080_20120422_084500_melville.all.mb58.gz 39.53MB Kongsberg multibeam vendor format
0081_20120422_091458_melville.all.mb58.gz 38.51MB Kongsberg multibeam vendor format
0082_20120422_094459_melville.all.mb58.gz 45.41MB Kongsberg multibeam vendor format
0083_20120422_101459_melville.all.mb58.gz 45.75MB Kongsberg multibeam vendor format
0084_20120422_104459_melville.all.mb58.gz 53.63MB Kongsberg multibeam vendor format
0085_20120422_111459_melville.all.mb58.gz 41.89MB Kongsberg multibeam vendor format
0086_20120422_114500_melville.all.mb58.gz 36.50MB Kongsberg multibeam vendor format
0087_20120422_121501_melville.all.mb58.gz 39.06MB Kongsberg multibeam vendor format
0088_20120422_124501_melville.all.mb58.gz 38.57MB Kongsberg multibeam vendor format
0089_20120422_131501_melville.all.mb58.gz 40.93MB Kongsberg multibeam vendor format
0090_20120422_134459_melville.all.mb58.gz 41.45MB Kongsberg multibeam vendor format
0091_20120422_141459_melville.all.mb58.gz 53.55MB Kongsberg multibeam vendor format
0092_20120422_144459_melville.all.mb58.gz 103.96MB Kongsberg multibeam vendor format
0093_20120422_151459_melville.all.mb58.gz 111.71MB Kongsberg multibeam vendor format
0094_20120422_154459_melville.all.mb58.gz 112.60MB Kongsberg multibeam vendor format
0095_20120422_161459_melville.all.mb58.gz 86.29MB Kongsberg multibeam vendor format
0096_20120422_164459_melville.all.mb58.gz 49.03MB Kongsberg multibeam vendor format
0097_20120422_171500_melville.all.mb58.gz 26.39MB Kongsberg multibeam vendor format
0098_20120422_174501_melville.all.mb58.gz 26.27MB Kongsberg multibeam vendor format
0099_20120422_181506_melville.all.mb58.gz 26.61MB Kongsberg multibeam vendor format
0100_20120422_184501_melville.all.mb58.gz 29.31MB Kongsberg multibeam vendor format
0101_20120422_191501_melville.all.mb58.gz 30.05MB Kongsberg multibeam vendor format
0102_20120422_194502_melville.all.mb58.gz 29.20MB Kongsberg multibeam vendor format
0103_20120422_201459_melville.all.mb58.gz 21.61MB Kongsberg multibeam vendor format
0104_20120422_205938_melville.all.mb58.gz 3.16MB Kongsberg multibeam vendor format
0105_20120422_210402_melville.all.mb58.gz 130.5KB Kongsberg multibeam vendor format
0107_20120422_210715_melville.all.mb58.gz 21.51MB Kongsberg multibeam vendor format
0108_20120422_213718_melville.all.mb58.gz 20.91MB Kongsberg multibeam vendor format
0109_20120422_220712_melville.all.mb58.gz 26.45MB Kongsberg multibeam vendor format
0110_20120422_223715_melville.all.mb58.gz 23.23MB Kongsberg multibeam vendor format
0111_20120422_230722_melville.all.mb58.gz 18.99MB Kongsberg multibeam vendor format
0112_20120422_233722_melville.all.mb58.gz 19.08MB Kongsberg multibeam vendor format
0113_20120423_000715_melville.all.mb58.gz 18.78MB Kongsberg multibeam vendor format
0114_20120423_003713_melville.all.mb58.gz 0.74MB Kongsberg multibeam vendor format
0115_20120423_174414_melville.all.mb58.gz 19.48MB Kongsberg multibeam vendor format
0116_20120423_181415_melville.all.mb58.gz 18.90MB Kongsberg multibeam vendor format
0117_20120423_184414_melville.all.mb58.gz 18.99MB Kongsberg multibeam vendor format
0118_20120423_191427_melville.all.mb58.gz 18.93MB Kongsberg multibeam vendor format
0119_20120423_194418_melville.all.mb58.gz 19.24MB Kongsberg multibeam vendor format
0120_20120423_201416_melville.all.mb58.gz 19.31MB Kongsberg multibeam vendor format
0121_20120423_204418_melville.all.mb58.gz 19.41MB Kongsberg multibeam vendor format
0122_20120423_211421_melville.all.mb58.gz 19.56MB Kongsberg multibeam vendor format
0123_20120423_214423_melville.all.mb58.gz 19.49MB Kongsberg multibeam vendor format
0124_20120423_221424_melville.all.mb58.gz 19.60MB Kongsberg multibeam vendor format
0125_20120423_224426_melville.all.mb58.gz 19.76MB Kongsberg multibeam vendor format
0126_20120423_231419_melville.all.mb58.gz 20.00MB Kongsberg multibeam vendor format
0127_20120423_234420_melville.all.mb58.gz 20.26MB Kongsberg multibeam vendor format
0128_20120424_001422_melville.all.mb58.gz 20.32MB Kongsberg multibeam vendor format
0129_20120424_004422_melville.all.mb58.gz 20.46MB Kongsberg multibeam vendor format
0130_20120424_011419_melville.all.mb58.gz 20.72MB Kongsberg multibeam vendor format
0131_20120424_014413_melville.all.mb58.gz 20.64MB Kongsberg multibeam vendor format
0132_20120424_021416_melville.all.mb58.gz 20.60MB Kongsberg multibeam vendor format
0133_20120424_024419_melville.all.mb58.gz 20.24MB Kongsberg multibeam vendor format
0134_20120424_031413_melville.all.mb58.gz 20.25MB Kongsberg multibeam vendor format
0135_20120424_034420_melville.all.mb58.gz 19.97MB Kongsberg multibeam vendor format
0136_20120424_041426_melville.all.mb58.gz 19.74MB Kongsberg multibeam vendor format
0137_20120424_044424_melville.all.mb58.gz 19.48MB Kongsberg multibeam vendor format
0138_20120424_051416_melville.all.mb58.gz 19.58MB Kongsberg multibeam vendor format
0139_20120424_054416_melville.all.mb58.gz 19.45MB Kongsberg multibeam vendor format
0140_20120424_061416_melville.all.mb58.gz 19.62MB Kongsberg multibeam vendor format
0141_20120424_064427_melville.all.mb58.gz 19.36MB Kongsberg multibeam vendor format
0142_20120424_071421_melville.all.mb58.gz 19.54MB Kongsberg multibeam vendor format
0143_20120424_074418_melville.all.mb58.gz 19.88MB Kongsberg multibeam vendor format
0144_20120424_081426_melville.all.mb58.gz 19.31MB Kongsberg multibeam vendor format
0145_20120424_084421_melville.all.mb58.gz 19.42MB Kongsberg multibeam vendor format
0146_20120424_091419_melville.all.mb58.gz 19.45MB Kongsberg multibeam vendor format
0147_20120424_094413_melville.all.mb58.gz 19.60MB Kongsberg multibeam vendor format
0148_20120424_101424_melville.all.mb58.gz 19.34MB Kongsberg multibeam vendor format
0149_20120424_104420_melville.all.mb58.gz 19.46MB Kongsberg multibeam vendor format
0150_20120424_111424_melville.all.mb58.gz 19.33MB Kongsberg multibeam vendor format
0151_20120424_114423_melville.all.mb58.gz 19.29MB Kongsberg multibeam vendor format
0152_20120424_121420_melville.all.mb58.gz 19.54MB Kongsberg multibeam vendor format
0153_20120424_124424_melville.all.mb58.gz 3.06MB Kongsberg multibeam vendor format
0154_20120425_144519_melville.all.mb58.gz 19.34MB Kongsberg multibeam vendor format
0155_20120425_151524_melville.all.mb58.gz 19.19MB Kongsberg multibeam vendor format
0156_20120425_154518_melville.all.mb58.gz 19.04MB Kongsberg multibeam vendor format
0157_20120425_161512_melville.all.mb58.gz 19.13MB Kongsberg multibeam vendor format
0158_20120425_164525_melville.all.mb58.gz 19.23MB Kongsberg multibeam vendor format
0159_20120425_171517_melville.all.mb58.gz 18.89MB Kongsberg multibeam vendor format
0160_20120425_174512_melville.all.mb58.gz 19.07MB Kongsberg multibeam vendor format
0161_20120425_181526_melville.all.mb58.gz 18.70MB Kongsberg multibeam vendor format
0162_20120425_184514_melville.all.mb58.gz 18.90MB Kongsberg multibeam vendor format
0163_20120425_191524_melville.all.mb58.gz 18.74MB Kongsberg multibeam vendor format
0164_20120425_194521_melville.all.mb58.gz 19.25MB Kongsberg multibeam vendor format
0165_20120425_201521_melville.all.mb58.gz 19.61MB Kongsberg multibeam vendor format
0166_20120425_204522_melville.all.mb58.gz 19.43MB Kongsberg multibeam vendor format
0167_20120425_211513_melville.all.mb58.gz 19.42MB Kongsberg multibeam vendor format
0168_20120425_214517_melville.all.mb58.gz 19.28MB Kongsberg multibeam vendor format
0169_20120425_221514_melville.all.mb58.gz 19.25MB Kongsberg multibeam vendor format
0170_20120425_224516_melville.all.mb58.gz 19.28MB Kongsberg multibeam vendor format
0171_20120425_231523_melville.all.mb58.gz 19.15MB Kongsberg multibeam vendor format
0172_20120425_234522_melville.all.mb58.gz 19.08MB Kongsberg multibeam vendor format
0173_20120426_001516_melville.all.mb58.gz 19.24MB Kongsberg multibeam vendor format
0174_20120426_004524_melville.all.mb58.gz 19.08MB Kongsberg multibeam vendor format
0175_20120426_011515_melville.all.mb58.gz 19.16MB Kongsberg multibeam vendor format
0176_20120426_014517_melville.all.mb58.gz 19.23MB Kongsberg multibeam vendor format
0177_20120426_021518_melville.all.mb58.gz 11.43MB Kongsberg multibeam vendor format
0178_20120427_065532_melville.all.mb58.gz 19.61MB Kongsberg multibeam vendor format
0179_20120427_072534_melville.all.mb58.gz 20.73MB Kongsberg multibeam vendor format
0180_20120427_075541_melville.all.mb58.gz 24.09MB Kongsberg multibeam vendor format
0181_20120427_082537_melville.all.mb58.gz 24.86MB Kongsberg multibeam vendor format
0182_20120427_085532_melville.all.mb58.gz 25.16MB Kongsberg multibeam vendor format
0183_20120427_092530_melville.all.mb58.gz 24.87MB Kongsberg multibeam vendor format
0184_20120427_095530_melville.all.mb58.gz 25.35MB Kongsberg multibeam vendor format
0185_20120427_102532_melville.all.mb58.gz 27.99MB Kongsberg multibeam vendor format
0186_20120427_105534_melville.all.mb58.gz 29.05MB Kongsberg multibeam vendor format
0187_20120427_112533_melville.all.mb58.gz 26.81MB Kongsberg multibeam vendor format
0188_20120427_115534_melville.all.mb58.gz 28.59MB Kongsberg multibeam vendor format
0189_20120427_122532_melville.all.mb58.gz 31.65MB Kongsberg multibeam vendor format
0190_20120427_125530_melville.all.mb58.gz 32.18MB Kongsberg multibeam vendor format
0191_20120427_132531_melville.all.mb58.gz 28.85MB Kongsberg multibeam vendor format
0192_20120427_135534_melville.all.mb58.gz 25.46MB Kongsberg multibeam vendor format
0193_20120427_143350_melville.all.mb58.gz 29.58MB Kongsberg multibeam vendor format
0194_20120427_150353_melville.all.mb58.gz 29.87MB Kongsberg multibeam vendor format
0195_20120427_153352_melville.all.mb58.gz 31.76MB Kongsberg multibeam vendor format
0196_20120427_160355_melville.all.mb58.gz 32.51MB Kongsberg multibeam vendor format
0197_20120427_163352_melville.all.mb58.gz 27.15MB Kongsberg multibeam vendor format
0198_20120427_170353_melville.all.mb58.gz 26.93MB Kongsberg multibeam vendor format
0199_20120427_173351_melville.all.mb58.gz 29.27MB Kongsberg multibeam vendor format
0200_20120427_180352_melville.all.mb58.gz 28.09MB Kongsberg multibeam vendor format
0201_20120427_183355_melville.all.mb58.gz 26.76MB Kongsberg multibeam vendor format
0202_20120427_190358_melville.all.mb58.gz 27.95MB Kongsberg multibeam vendor format
0203_20120427_193356_melville.all.mb58.gz 25.11MB Kongsberg multibeam vendor format
0204_20120427_200357_melville.all.mb58.gz 24.46MB Kongsberg multibeam vendor format
0205_20120427_203400_melville.all.mb58.gz 24.18MB Kongsberg multibeam vendor format
0206_20120427_210353_melville.all.mb58.gz 22.07MB Kongsberg multibeam vendor format
0207_20120427_213354_melville.all.mb58.gz 23.91MB Kongsberg multibeam vendor format
0208_20120427_220356_melville.all.mb58.gz 25.35MB Kongsberg multibeam vendor format
0209_20120427_223352_melville.all.mb58.gz 25.02MB Kongsberg multibeam vendor format
0210_20120427_230354_melville.all.mb58.gz 25.71MB Kongsberg multibeam vendor format
0211_20120427_233353_melville.all.mb58.gz 25.90MB Kongsberg multibeam vendor format
0212_20120428_000355_melville.all.mb58.gz 25.05MB Kongsberg multibeam vendor format
0213_20120428_003354_melville.all.mb58.gz 27.36MB Kongsberg multibeam vendor format
0214_20120428_010350_melville.all.mb58.gz 26.71MB Kongsberg multibeam vendor format
0215_20120428_013352_melville.all.mb58.gz 25.43MB Kongsberg multibeam vendor format
0216_20120428_020350_melville.all.mb58.gz 25.44MB Kongsberg multibeam vendor format
0217_20120428_023355_melville.all.mb58.gz 25.05MB Kongsberg multibeam vendor format
0218_20120428_030352_melville.all.mb58.gz 25.94MB Kongsberg multibeam vendor format
0219_20120428_033357_melville.all.mb58.gz 25.98MB Kongsberg multibeam vendor format
0220_20120428_040354_melville.all.mb58.gz 25.46MB Kongsberg multibeam vendor format
0221_20120428_043354_melville.all.mb58.gz 25.11MB Kongsberg multibeam vendor format
0222_20120428_050357_melville.all.mb58.gz 25.73MB Kongsberg multibeam vendor format
0223_20120428_053352_melville.all.mb58.gz 26.85MB Kongsberg multibeam vendor format
0224_20120428_060356_melville.all.mb58.gz 26.62MB Kongsberg multibeam vendor format
0225_20120428_063352_melville.all.mb58.gz 26.50MB Kongsberg multibeam vendor format
0226_20120428_070358_melville.all.mb58.gz 26.14MB Kongsberg multibeam vendor format
0227_20120428_073353_melville.all.mb58.gz 27.49MB Kongsberg multibeam vendor format
0228_20120428_080355_melville.all.mb58.gz 24.64MB Kongsberg multibeam vendor format
0229_20120428_083353_melville.all.mb58.gz 27.66MB Kongsberg multibeam vendor format
0230_20120428_090353_melville.all.mb58.gz 25.46MB Kongsberg multibeam vendor format
0231_20120428_093351_melville.all.mb58.gz 25.69MB Kongsberg multibeam vendor format
0232_20120428_100356_melville.all.mb58.gz 25.86MB Kongsberg multibeam vendor format
0233_20120428_103350_melville.all.mb58.gz 25.03MB Kongsberg multibeam vendor format
0234_20120428_110350_melville.all.mb58.gz 25.61MB Kongsberg multibeam vendor format
0235_20120428_113351_melville.all.mb58.gz 24.82MB Kongsberg multibeam vendor format
0236_20120428_120358_melville.all.mb58.gz 23.85MB Kongsberg multibeam vendor format
0237_20120428_123351_melville.all.mb58.gz 23.74MB Kongsberg multibeam vendor format
0238_20120428_130352_melville.all.mb58.gz 23.90MB Kongsberg multibeam vendor format
0239_20120428_133352_melville.all.mb58.gz 24.18MB Kongsberg multibeam vendor format
0240_20120428_140356_melville.all.mb58.gz 24.50MB Kongsberg multibeam vendor format
0241_20120428_143358_melville.all.mb58.gz 24.15MB Kongsberg multibeam vendor format
0242_20120428_150352_melville.all.mb58.gz 24.90MB Kongsberg multibeam vendor format
0243_20120428_153356_melville.all.mb58.gz 25.58MB Kongsberg multibeam vendor format
0244_20120428_160400_melville.all.mb58.gz 24.86MB Kongsberg multibeam vendor format
0245_20120428_163359_melville.all.mb58.gz 24.97MB Kongsberg multibeam vendor format
0246_20120428_170351_melville.all.mb58.gz 25.56MB Kongsberg multibeam vendor format
0247_20120428_173356_melville.all.mb58.gz 25.91MB Kongsberg multibeam vendor format
0248_20120428_180352_melville.all.mb58.gz 25.73MB Kongsberg multibeam vendor format
0249_20120428_183350_melville.all.mb58.gz 25.31MB Kongsberg multibeam vendor format
0250_20120428_190354_melville.all.mb58.gz 23.22MB Kongsberg multibeam vendor format
0251_20120428_193358_melville.all.mb58.gz 23.34MB Kongsberg multibeam vendor format
0252_20120428_200358_melville.all.mb58.gz 24.92MB Kongsberg multibeam vendor format
0253_20120428_203353_melville.all.mb58.gz 25.88MB Kongsberg multibeam vendor format
0254_20120428_210356_melville.all.mb58.gz 27.12MB Kongsberg multibeam vendor format
0255_20120428_213350_melville.all.mb58.gz 26.25MB Kongsberg multibeam vendor format
0256_20120428_220355_melville.all.mb58.gz 20.95MB Kongsberg multibeam vendor format
0257_20120428_223358_melville.all.mb58.gz 20.19MB Kongsberg multibeam vendor format
0258_20120428_230357_melville.all.mb58.gz 24.06MB Kongsberg multibeam vendor format
0259_20120428_233353_melville.all.mb58.gz 27.95MB Kongsberg multibeam vendor format
0260_20120429_000352_melville.all.mb58.gz 37.81MB Kongsberg multibeam vendor format
0261_20120429_003349_melville.all.mb58.gz 31.84MB Kongsberg multibeam vendor format
0262_20120429_010354_melville.all.mb58.gz 28.49MB Kongsberg multibeam vendor format
0263_20120429_013354_melville.all.mb58.gz 29.36MB Kongsberg multibeam vendor format
0264_20120429_020353_melville.all.mb58.gz 28.35MB Kongsberg multibeam vendor format
0265_20120429_023356_melville.all.mb58.gz 26.63MB Kongsberg multibeam vendor format
0266_20120429_030355_melville.all.mb58.gz 25.38MB Kongsberg multibeam vendor format
0267_20120429_033351_melville.all.mb58.gz 24.88MB Kongsberg multibeam vendor format
0268_20120429_040353_melville.all.mb58.gz 24.48MB Kongsberg multibeam vendor format
0269_20120429_043356_melville.all.mb58.gz 27.45MB Kongsberg multibeam vendor format
0270_20120429_050354_melville.all.mb58.gz 28.44MB Kongsberg multibeam vendor format
0271_20120429_053355_melville.all.mb58.gz 26.94MB Kongsberg multibeam vendor format
0272_20120429_060349_melville.all.mb58.gz 31.92MB Kongsberg multibeam vendor format
0273_20120429_063352_melville.all.mb58.gz 32.10MB Kongsberg multibeam vendor format
0274_20120429_070352_melville.all.mb58.gz 33.15MB Kongsberg multibeam vendor format
0275_20120429_073351_melville.all.mb58.gz 34.67MB Kongsberg multibeam vendor format
0276_20120429_080352_melville.all.mb58.gz 29.61MB Kongsberg multibeam vendor format
0277_20120429_083352_melville.all.mb58.gz 30.52MB Kongsberg multibeam vendor format
0278_20120429_090353_melville.all.mb58.gz 36.64MB Kongsberg multibeam vendor format
0279_20120429_093349_melville.all.mb58.gz 38.63MB Kongsberg multibeam vendor format
0280_20120429_100350_melville.all.mb58.gz 35.47MB Kongsberg multibeam vendor format
0281_20120429_103351_melville.all.mb58.gz 33.53MB Kongsberg multibeam vendor format
0282_20120429_110350_melville.all.mb58.gz 34.58MB Kongsberg multibeam vendor format
0283_20120429_113352_melville.all.mb58.gz 34.01MB Kongsberg multibeam vendor format
0284_20120429_120349_melville.all.mb58.gz 31.76MB Kongsberg multibeam vendor format
0285_20120429_123353_melville.all.mb58.gz 27.06MB Kongsberg multibeam vendor format
0286_20120429_130351_melville.all.mb58.gz 24.71MB Kongsberg multibeam vendor format
0287_20120429_133357_melville.all.mb58.gz 24.36MB Kongsberg multibeam vendor format
0288_20120429_140352_melville.all.mb58.gz 23.58MB Kongsberg multibeam vendor format
0289_20120429_143355_melville.all.mb58.gz 24.72MB Kongsberg multibeam vendor format
0290_20120429_150352_melville.all.mb58.gz 27.09MB Kongsberg multibeam vendor format
0291_20120429_153349_melville.all.mb58.gz 22.92MB Kongsberg multibeam vendor format
0292_20120429_160351_melville.all.mb58.gz 23.32MB Kongsberg multibeam vendor format
0293_20120429_163352_melville.all.mb58.gz 24.47MB Kongsberg multibeam vendor format
0294_20120429_170352_melville.all.mb58.gz 24.97MB Kongsberg multibeam vendor format
0295_20120429_173351_melville.all.mb58.gz 23.69MB Kongsberg multibeam vendor format
0296_20120429_180358_melville.all.mb58.gz 24.64MB Kongsberg multibeam vendor format
0297_20120429_183354_melville.all.mb58.gz 25.15MB Kongsberg multibeam vendor format
0298_20120429_190356_melville.all.mb58.gz 23.76MB Kongsberg multibeam vendor format
0299_20120429_193349_melville.all.mb58.gz 23.13MB Kongsberg multibeam vendor format
0300_20120429_200350_melville.all.mb58.gz 20.18MB Kongsberg multibeam vendor format
0301_20120429_203353_melville.all.mb58.gz 21.21MB Kongsberg multibeam vendor format
0302_20120429_210354_melville.all.mb58.gz 22.82MB Kongsberg multibeam vendor format
0303_20120429_213354_melville.all.mb58.gz 21.89MB Kongsberg multibeam vendor format
0304_20120429_220351_melville.all.mb58.gz 20.12MB Kongsberg multibeam vendor format
0305_20120429_223357_melville.all.mb58.gz 22.52MB Kongsberg multibeam vendor format
0306_20120429_230356_melville.all.mb58.gz 24.78MB Kongsberg multibeam vendor format
0307_20120429_233354_melville.all.mb58.gz 24.93MB Kongsberg multibeam vendor format
0308_20120430_000353_melville.all.mb58.gz 22.86MB Kongsberg multibeam vendor format
0309_20120430_003357_melville.all.mb58.gz 21.77MB Kongsberg multibeam vendor format
0310_20120430_010350_melville.all.mb58.gz 23.08MB Kongsberg multibeam vendor format
0311_20120430_013354_melville.all.mb58.gz 24.00MB Kongsberg multibeam vendor format
0312_20120430_020353_melville.all.mb58.gz 27.39MB Kongsberg multibeam vendor format
0313_20120430_023354_melville.all.mb58.gz 27.09MB Kongsberg multibeam vendor format
0314_20120430_030351_melville.all.mb58.gz 27.02MB Kongsberg multibeam vendor format
0315_20120430_033352_melville.all.mb58.gz 28.25MB Kongsberg multibeam vendor format
0316_20120430_040350_melville.all.mb58.gz 28.54MB Kongsberg multibeam vendor format
0317_20120430_043353_melville.all.mb58.gz 28.54MB Kongsberg multibeam vendor format
0318_20120430_050349_melville.all.mb58.gz 29.66MB Kongsberg multibeam vendor format
0319_20120430_053353_melville.all.mb58.gz 29.84MB Kongsberg multibeam vendor format
0320_20120430_060350_melville.all.mb58.gz 28.43MB Kongsberg multibeam vendor format
0321_20120430_063354_melville.all.mb58.gz 28.73MB Kongsberg multibeam vendor format
0322_20120430_070352_melville.all.mb58.gz 28.66MB Kongsberg multibeam vendor format
0323_20120430_073350_melville.all.mb58.gz 31.21MB Kongsberg multibeam vendor format
0324_20120430_080349_melville.all.mb58.gz 40.47MB Kongsberg multibeam vendor format
0325_20120430_083349_melville.all.mb58.gz 59.10MB Kongsberg multibeam vendor format
0326_20120430_090348_melville.all.mb58.gz 83.15MB Kongsberg multibeam vendor format
0327_20120430_093348_melville.all.mb58.gz 85.87MB Kongsberg multibeam vendor format
0328_20120430_100348_melville.all.mb58.gz 90.72MB Kongsberg multibeam vendor format
0329_20120430_103348_melville.all.mb58.gz 81.95MB Kongsberg multibeam vendor format

Metadata Files: 2

Files File Size Description
MV1205_Multibeam.xml NGDC created ISO metadata
xbt_bag_info.tar.gz 1.1KB Additional cruise information

Ancillary Files: 1

Files File Size Description
xbt.tar.gz 146.2KB Expendable Bathythermograph (XBT) data